STARLINK-11270, 60999

Orbit data source: Space-Track

STARLINK-11270, 60999 is a payload satellite owned by SpaceX/Seattle (US) in LEO that was launched on Thu, 05 Sep 2024 UTC via an FALCON 9 launch vehicle from the Air Force Eastern Test Range (AFETR). Payload-class satellites include a variety of spacecraft equipped with specific instruments for various scientific and technological missions. These include communications satellites like Starlink; space stations such as the ISS; scientific satellites like the Hubble; Earth observation satellites from companies like Planet Labs, Umbra, and HawkEye 360; GPS; miniature CubeSats for education and research; and military/defense satellites.

Loading next visibility...
Identifier
60999, 2024-158K
Orbit
LEO
Last TLE update
7 hours ago
Origin
Manufacturer
SpaceX/Seattle
Mission
Operational Commercial Communications
Bus & Motor
STARLINK V2M, Unknown motor
Mass
730 kg wet, ~700 kg dry
Launch date (UTC)
2024-09-05 (10 months ago)
Launch vehicle
FALCON 9
Launch site
Air Force Eastern Test Range (AFETR)
Object type
Payload
Rocket body
Debris
Shape & HBR
Box + 2 Pan, 29 m
Radar Cross Section
36.964 m², Large (>1 m²)

Expand to show TLE details & history

TLE from 7 hours ago
0 STARLINK-11270
1 60999U 24158K   25182.89614235 -.00001021  00000-0 -35740-5 0  9999
2 60999  53.1594  77.6598 0001097  70.7596 289.3541 15.69704030 48194
Epoch: 2025-07-01T21:30Z
TLE epoch observation values (Epoch: 2025-07-01T21:30:26.699Z)
Latitude
0.00004°
Longitude
-165.13644°
Altitude
360.414 km
Speed
7.694 km/s
True Right ascension
05h 10m 38s
True Declination
0° 00' 00"
Sunlit
Object was in daylight at epoch
Visualization orbit readout
Latitude
-41.56263°
Longitude
151.9984°
Altitude
373.998 km
Speed
7.685 km/s
Apparent Right ascension
03h 26m 31s
Apparent Declination
-41° 51' 54"
Sunlit
Object is in daylight
Visualization observer readout
Local Sidereal Time
16:36:08
Azimuth
104.083° ESE
Elevation
-76.722°
Doppler factor
1
Orbital elements
Apogee altitude
360.744 km
Perigee altitude
359.265 km
Semi-major axis
6,738.142 km
Eccentricity
0.00011
Inclination
53.1594°
RAAN
77.6598°
Arg. of periapsis
70.7596°
True anomaly
Unknown
Mean anomaly
289.3541°
Eccentric anomaly
Unknown
Mean motion
3.92404 °/min
Orbital period
91.74 mins
BSTAR
-0.000003574
Loading maneuver chart data...
Loading SW <> Apogee altitude chart data...
Loading historical data...
Loading historical data...
Loading historical data...
Loading historical data...
Loading historical data...
Loading historical data...
Loading historical data...

STARLINK-11270 Visibility forecast

Observer location: undefined°, undefined°

Span
Click to sort rows by Start time (UTC) header in descending order
Start Az.
Max El. time (UTC)
Max El. Az.
Max El.
End time (UTC)
End Az.
5 mins2025-07-02 19:03:39.881Z197.001° SSW2025-07-02 19:06:39.881Z114.069° SE25.897°2025-07-02 19:08:39.881Z70.967° E
4 mins2025-07-03 03:04:39.881Z273.672° WNW2025-07-03 03:05:39.881Z244.65° WSW24.975°2025-07-03 03:08:39.881Z164.453° S
|